TimeEST,TemperatureF,Dew PointF,Humidity,Sea Level PressureIn,VisibilityMPH,Wind Direction,Wind SpeedMPH,Gust SpeedMPH,PrecipitationIn,Events,Conditions,WindDirDegrees,DateUTC
12:51 AM,12.0,1.9,64,30.13,10.0,SW,3.5,-,N/A,,Clear,220,2013-02-19 05:51:00
1:51 AM,12.9,-0.9,54,30.15,10.0,Calm,Calm,-,N/A,,Clear,0,2013-02-19 06:51:00
2:51 AM,14.0,1.0,56,30.16,10.0,Calm,Calm,-,N/A,,Clear,0,2013-02-19 07:51:00
3:51 AM,12.9,3.0,65,30.16,10.0,Calm,Calm,-,N/A,,Mostly Cloudy,0,2013-02-19 08:51:00
4:51 AM,12.9,1.9,62,30.13,10.0,NE,4.6,-,N/A,,Scattered Clouds,50,2013-02-19 09:51:00
5:51 AM,18.0,1.9,50,30.11,10.0,Calm,Calm,-,N/A,,Overcast,0,2013-02-19 10:51:00
6:51 AM,12.9,3.9,67,30.12,10.0,Calm,Calm,-,N/A,,Clear,0,2013-02-19 11:51:00
7:51 AM,15.1,6.1,68,30.10,10.0,Calm,Calm,-,N/A,,Partly Cloudy,0,2013-02-19 12:51:00
8:51 AM,23.0,3.9,44,30.09,10.0,Calm,Calm,-,N/A,,Mostly Cloudy,0,2013-02-19 13:51:00
9:51 AM,28.0,1.9,33,30.07,10.0,Calm,Calm,-,N/A,,Clear,0,2013-02-19 14:51:00
10:51 AM,33.1,7.0,34,30.04,10.0,Calm,Calm,-,N/A,,Clear,0,2013-02-19 15:51:00
11:51 AM,35.1,12.0,39,30.01,10.0,SSE,8.1,-,N/A,,Clear,150,2013-02-19 16:51:00
1:51 PM,39.0,19.0,45,29.93,10.0,SSE,6.9,-,N/A,,Clear,150,2013-02-19 18:51:00
2:51 PM,39.9,21.9,49,29.89,10.0,ESE,5.8,-,N/A,,Scattered Clouds,120,2013-02-19 19:51:00
3:51 PM,39.9,21.9,49,29.84,10.0,East,8.1,-,N/A,,Overcast,90,2013-02-19 20:51:00
4:51 PM,39.0,25.0,57,29.81,10.0,SE,6.9,-,N/A,,Overcast,140,2013-02-19 21:51:00
5:51 PM,37.9,28.0,68,29.78,10.0,ESE,3.5,-,0.00,Rain,Light Rain,120,2013-02-19 22:51:00
5:59 PM,37.4,28.4,70,29.76,10.0,SE,4.6,-,0.00,,Overcast,130,2013-02-19 22:59:00
7:44 PM,35.6,35.6,100,29.69,9.0,ESE,3.5,-,0.02,Rain,Light Rain,110,2013-02-20 00:44:00
7:51 PM,37.0,35.1,93,29.70,7.0,ESE,4.6,-,0.03,Rain,Light Rain,110,2013-02-20 00:51:00
8:40 PM,37.4,35.6,93,29.65,9.0,ESE,3.5,-,0.02,Rain,Light Rain,120,2013-02-20 01:40:00
8:48 PM,37.4,35.6,93,29.65,9.0,ESE,4.6,-,0.02,Rain,Light Rain,120,2013-02-20 01:48:00
8:51 PM,37.0,36.0,96,29.67,8.0,SE,4.6,-,0.02,Rain,Light Rain,130,2013-02-20 01:51:00
9:35 PM,37.4,35.6,93,29.59,5.0,Calm,Calm,-,0.02,Rain,Light Rain,0,2013-02-20 02:35:00
9:51 PM,35.1,35.1,100,29.61,5.0,Calm,Calm,-,0.02,Rain,Light Rain,0,2013-02-20 02:51:00
10:00 PM,35.6,35.6,100,29.61,1.8,Calm,Calm,-,0.01,Rain,Light Rain,0,2013-02-20 03:00:00
10:05 PM,35.6,35.6,100,29.60,0.8,Calm,Calm,-,0.01,Rain,Light Rain,0,2013-02-20 03:05:00
10:22 PM,33.8,33.8,100,29.59,0.5,NW,3.5,-,0.01,Fog-Rain,Light Rain,310,2013-02-20 03:22:00
10:31 PM,33.8,33.8,100,29.59,1.5,NW,3.5,-,0.01,Rain,Light Rain,310,2013-02-20 03:31:00
10:51 PM,34.0,34.0,100,29.61,1.5,Calm,Calm,-,0.02,Rain,Light Rain,0,2013-02-20 03:51:00
11:01 PM,35.6,33.8,93,29.58,1.2,NW,3.5,-,0.01,Rain,Light Rain,320,2013-02-20 04:01:00
11:12 PM,33.8,33.8,100,29.57,0.5,WNW,4.6,-,0.02,Fog-Rain,Light Rain,300,2013-02-20 04:12:00
11:23 PM,35.6,33.8,93,29.56,1.5,NW,3.5,-,0.02,Rain,Light Rain,320,2013-02-20 04:23:00
11:51 PM,34.0,33.1,96,29.56,1.2,NW,3.5,-,0.02,,Overcast,310,2013-02-20 04:51:00